When you browse on this site, cookies collect data to enhance your experience and personalize the content and advertising you see.
Visit our Privacy Policy to learn more. By continuing to use the site, you agree to this use of cookies and data.
  • In France
  • List of Countries
  • For 7 days
  • Water Temperature
  • Satellite Maps
  • Weather Map
  • Weather Widgets
  • user-avatar
    Login

    Hourly Weather Benito Juarez

    Today, 20 July, Saturday

    Time Temperature Precipitation Wind Pressure Humidity
    00:00 +21°C° 0.4 mm 1 mps 672 mmHg 90%
    01:00 +20°C° 0.4 mm 1 mps 672 mmHg 90%
    02:00 +20°C° 0.4 mm 1 mps 671 mmHg 91%
    03:00 +20°C° 1.1 mm 1 mps 671 mmHg 92%
    04:00 +20°C° 1.1 mm 1 mps 671 mmHg 93%
    05:00 +20°C° 1.1 mm 1 mps 671 mmHg 94%
    06:00 +20°C° 2 mm 1 mps 672 mmHg 94%
    07:00 +19°C° 2 mm 0 mps 672 mmHg 94%
    08:00 +20°C° 2 mm 0 mps 673 mmHg 94%
    09:00 +23°C° 0.5 mm 1 mps 673 mmHg 91%
    10:00 +24°C° 0.5 mm 1 mps 673 mmHg 88%
    11:00 +25°C° 0.5 mm 1 mps 672 mmHg 85%
    12:00 +26°C° 0.2 mm 1 mps 672 mmHg 81%
    13:00 +26°C° 0.2 mm 1 mps 671 mmHg 78%
    14:00 +27°C° 0.2 mm 1 mps 671 mmHg 75%
    15:00 +26°C° 0.1 mm 1 mps 671 mmHg 79%
    16:00 +26°C° 0.1 mm 1 mps 670 mmHg 83%
    17:00 +25°C° 0.1 mm 1 mps 670 mmHg 87%
    18:00 +24°C° 0.1 mm 1 mps 671 mmHg 89%
    19:00 +23°C° 0.1 mm 1 mps 671 mmHg 92%
    20:00 +22°C° 0.1 mm 1 mps 671 mmHg 95%
    21:00 +21°C° 0.1 mm 1 mps 672 mmHg 94%
    22:00 +21°C° 0.1 mm 1 mps 672 mmHg 92%
    23:00 +21°C° 0.1 mm 1 mps 672 mmHg 90%

    Tomorrow, 21 July, Sunday

    Time Temperature Precipitation Wind Pressure Humidity
    00:00 +21°C° 0.1 mm 1 mps 672 mmHg 89%
    01:00 +20°C° 0.1 mm 1 mps 671 mmHg 88%
    02:00 +20°C° 0.1 mm 1 mps 671 mmHg 87%
    03:00 +20°C° 0.1 mm 1 mps 671 mmHg 86%
    04:00 +20°C° 0.1 mm 1 mps 671 mmHg 85%
    05:00 +20°C° 0.1 mm 1 mps 671 mmHg 83%
    06:00 +21°C° 0 mm 1 mps 672 mmHg 82%
    07:00 +21°C° 0 mm 0 mps 673 mmHg 81%
    08:00 +22°C° 0 mm 0 mps 674 mmHg 80%
    09:00 +23°C° 0.1 mm 0 mps 674 mmHg 75%
    10:00 +27°C° 0.1 mm 1 mps 674 mmHg 69%
    11:00 +28°C° 0.1 mm 2 mps 674 mmHg 64%
    12:00 +29°C° 0.4 mm 1 mps 673 mmHg 65%
    13:00 +29°C° 0.4 mm 1 mps 673 mmHg 66%
    14:00 +29°C° 0.4 mm 1 mps 672 mmHg 67%
    15:00 +28°C° 0.6 mm 1 mps 672 mmHg 73%
    16:00 +27°C° 0.6 mm 1 mps 672 mmHg 79%
    17:00 +25°C° 0.6 mm 0 mps 672 mmHg 85%
    18:00 +25°C° 1 mm 1 mps 672 mmHg 86%
    19:00 +24°C° 1 mm 1 mps 672 mmHg 88%
    20:00 +22°C° 1 mm 1 mps 673 mmHg 90%
    21:00 +22°C° 0.4 mm 1 mps 673 mmHg 90%
    22:00 +21°C° 0.4 mm 1 mps 673 mmHg 90%
    23:00 +21°C° 0.4 mm 1 mps 673 mmHg 90%

    Day after tomorrow, 22 July, Monday

    Time Temperature Precipitation Wind Pressure Humidity
    00:00 +21°C° 0.4 mm 1 mps 673 mmHg 89%
    01:00 +21°C° 0.4 mm 1 mps 672 mmHg 89%
    02:00 +21°C° 0.4 mm 1 mps 672 mmHg 88%
    03:00 +20°C° 0.1 mm 1 mps 672 mmHg 88%
    04:00 +19°C° 0.1 mm 2 mps 672 mmHg 87%
    05:00 +19°C° 0.1 mm 2 mps 672 mmHg 86%
    06:00 +22°C° 0 mm 1 mps 672 mmHg 81%
    07:00 +24°C° 0 mm 1 mps 673 mmHg 77%
    08:00 +24°C° 0 mm 0 mps 674 mmHg 73%
    09:00 +27°C° 0.2 mm 1 mps 674 mmHg 70%
    10:00 +28°C° 0.2 mm 1 mps 674 mmHg 68%
    11:00 +29°C° 0.2 mm 2 mps 673 mmHg 66%
    12:00 +29°C° 0.7 mm 1 mps 673 mmHg 67%
    13:00 +29°C° 0.7 mm 1 mps 672 mmHg 68%
    14:00 +29°C° 0.7 mm 1 mps 671 mmHg 70%
    15:00 +28°C° 0.8 mm 1 mps 671 mmHg 74%
    16:00 +28°C° 0.8 mm 1 mps 671 mmHg 79%
    17:00 +25°C° 0.8 mm 0 mps 671 mmHg 83%
    18:00 +25°C° 1.3 mm 1 mps 671 mmHg 86%
    19:00 +24°C° 1.3 mm 1 mps 671 mmHg 88%
    20:00 +21°C° 1.3 mm 2 mps 672 mmHg 90%
    21:00 +21°C° 0.4 mm 2 mps 672 mmHg 90%
    22:00 +21°C° 0.4 mm 2 mps 672 mmHg 90%
    23:00 +20°C° 0.4 mm 2 mps 673 mmHg 90%

    23 July, Tuesday

    Time Temperature Precipitation Wind Pressure Humidity
    00:00 +20°C° 0.2 mm 2 mps 673 mmHg 89%
    01:00 +21°C° 0.2 mm 1 mps 673 mmHg 88%
    02:00 +21°C° 0.2 mm 1 mps 672 mmHg 87%
    03:00 +21°C° 0.1 mm 1 mps 672 mmHg 86%
    04:00 +21°C° 0.1 mm 1 mps 672 mmHg 86%
    05:00 +21°C° 0.1 mm 1 mps 672 mmHg 85%
    06:00 +22°C° 0 mm 1 mps 673 mmHg 83%
    07:00 +21°C° 0 mm 0 mps 674 mmHg 80%
    08:00 +23°C° 0 mm 0 mps 674 mmHg 78%
    09:00 +26°C° 0.4 mm 1 mps 674 mmHg 77%
    10:00 +27°C° 0.4 mm 1 mps 674 mmHg 75%
    11:00 +27°C° 0.4 mm 1 mps 673 mmHg 73%
    12:00 +28°C° 1 mm 1 mps 673 mmHg 73%
    13:00 +28°C° 1 mm 1 mps 672 mmHg 73%
    14:00 +28°C° 1 mm 1 mps 671 mmHg 73%
    15:00 +27°C° 1.2 mm 1 mps 671 mmHg 78%
    16:00 +26°C° 1.2 mm 1 mps 671 mmHg 82%
    17:00 +25°C° 1.2 mm 1 mps 671 mmHg 87%
    18:00 +24°C° 0.4 mm 1 mps 671 mmHg 88%
    19:00 +23°C° 0.4 mm 1 mps 672 mmHg 89%
    20:00 +22°C° 0.4 mm 1 mps 672 mmHg 90%
    21:00 +22°C° 0.2 mm 1 mps 673 mmHg 89%
    22:00 +22°C° 0.2 mm 1 mps 673 mmHg 89%
    23:00 +22°C° 0.2 mm 1 mps 673 mmHg 89%

    24 July, Wednesday

    Time Temperature Precipitation Wind Pressure Humidity
    00:00 +21°C° 0.1 mm 1 mps 673 mmHg 88%
    01:00 +21°C° 0.1 mm 1 mps 672 mmHg 88%
    02:00 +21°C° 0.1 mm 1 mps 672 mmHg 87%
    03:00 +21°C° 0 mm 1 mps 672 mmHg 87%
    04:00 +21°C° 0 mm 1 mps 672 mmHg 86%
    05:00 +21°C° 0 mm 1 mps 672 mmHg 86%
    06:00 +22°C° 0.1 mm 1 mps 673 mmHg 84%
    07:00 +21°C° 0.1 mm 0 mps 673 mmHg 82%
    08:00 +23°C° 0.1 mm 0 mps 674 mmHg 80%
    09:00 +26°C° 0.7 mm 1 mps 674 mmHg 78%
    10:00 +27°C° 0.7 mm 1 mps 674 mmHg 77%
    11:00 +28°C° 0.7 mm 1 mps 673 mmHg 75%
    12:00 +28°C° 0.8 mm 1 mps 673 mmHg 74%
    13:00 +28°C° 0.8 mm 1 mps 672 mmHg 73%
    14:00 +28°C° 0.8 mm 1 mps 671 mmHg 72%
    15:00 +27°C° 1 mm 1 mps 671 mmHg 77%
    16:00 +26°C° 1 mm 1 mps 671 mmHg 81%
    17:00 +24°C° 1 mm 0 mps 671 mmHg 86%
    18:00 +24°C° 2 mm 1 mps 671 mmHg 89%
    19:00 +23°C° 2 mm 1 mps 672 mmHg 91%
    20:00 +22°C° 2 mm 1 mps 672 mmHg 94%
    21:00 +21°C° 0.5 mm 1 mps 672 mmHg 94%
    22:00 +21°C° 0.5 mm 1 mps 673 mmHg 94%
    23:00 +21°C° 0.5 mm 1 mps 673 mmHg 94%

    25 July, Thursday

    Time Temperature Precipitation Wind Pressure Humidity
    00:00 +20°C° 0.5 mm 1 mps 673 mmHg 93%
    01:00 +18°C° 0.5 mm 0 mps 672 mmHg 93%
    02:00 +18°C° 0.5 mm 0 mps 672 mmHg 93%
    03:00 +18°C° 0.2 mm 0 mps 672 mmHg 92%
    04:00 +18°C° 0.2 mm 0 mps 672 mmHg 92%
    05:00 +20°C° 0.2 mm 1 mps 672 mmHg 92%
    06:00 +21°C° 0 mm 1 mps 672 mmHg 89%
    07:00 +21°C° 0 mm 0 mps 673 mmHg 86%
    08:00 +22°C° 0 mm 0 mps 673 mmHg 83%
    09:00 +25°C° 0.5 mm 1 mps 673 mmHg 81%
    10:00 +26°C° 0.5 mm 1 mps 673 mmHg 78%
    11:00 +27°C° 0.5 mm 1 mps 673 mmHg 76%
    12:00 +27°C° 0.8 mm 1 mps 672 mmHg 76%
    13:00 +27°C° 0.8 mm 1 mps 672 mmHg 76%
    14:00 +27°C° 0.8 mm 1 mps 671 mmHg 76%
    15:00 +26°C° 2.3 mm 1 mps 671 mmHg 81%
    16:00 +25°C° 2.3 mm 1 mps 671 mmHg 85%
    17:00 +24°C° 2.3 mm 1 mps 670 mmHg 90%
    18:00 +23°C° 1.8 mm 1 mps 671 mmHg 91%
    19:00 +21°C° 1.8 mm 2 mps 671 mmHg 92%
    20:00 +20°C° 1.8 mm 2 mps 672 mmHg 93%
    21:00 +20°C° 0.2 mm 2 mps 672 mmHg 92%
    22:00 +20°C° 0.2 mm 2 mps 672 mmHg 91%
    23:00 +21°C° 0.2 mm 1 mps 673 mmHg 90%
    Show more